Temp
11 11 11 11 11 10 10 10 10 9 9 8 8 7 7 6 6 5 5 4 4 4
12 12 11 11 10 10 10 10 10 9 8 8 8 7 7 6 6 5 5 4 4 4
12 12 11 11 11 10 10 10 9 9 9 8 8 7 7 6 6 5 5 4 4 3
11 11 11 10 10 10 10 10 9 9 8 8 7 7 6 6 5 5 4 4 3 3
10 10 10 10 10 10 10 9 9 9 8 7 7 7 6 6 5 5 4 4 3 3
9 9 9 9 9 9 9 9 8 8 8 7 7 7 6 5 5 5 4 4 3 3
7 7 8 8 8 8 8 8 8 8 7 7 6 6 6 5 5 4 4 4 3 3
7 7 7 7 7 7 7 7 7 7 7 6 6 6 6 5 5 4 4 3 3 3
6 6 6 7 7 7 7 7 7 7 6 6 6 6 5 5 5 4 4 3 3 2
6 6 6 5 5 5 5 5 5 5 5 5 5 5 5 4 4 4 4 3 2 2
5 5 5 5 5 5 4 4 4 4 4 4 5 5 4 3 3 3 3 3 2 2
4 4 4 4 4 4 3 3 3 3 3 3 4 4 3 2 2 2 3 2 2 1
4 3 3 3 3 3 3 3 2 3 3 2 2 3 2 2 1 2 2 1 1 1
4 3 3 3 3 3 3 3 3 2 3 2 2 2 2 2 1 1 1 0 0 0
Height
829 828 826 826 826 826 824 823 824 823 822 822 822 821 821 820 819 818 817 816 816 815
825 822 820 819 820 820 819 819 819 819 819 819 818 818 817 816 816 815 814 814 813 812
820 817 814 812 812 812 812 813 813 812 812 812 812 812 811 811 811 810 810 810 810 810
816 813 810 807 806 806 806 807 807 806 807 807 807 807 807 807 807 806 806 805 805 805
812 808 805 803 801 801 800 800 801 802 802 802 802 803 803 803 802 802 802 802 801 801
809 804 802 800 797 796 795 796 797 797 797 797 797 797 798 798 799 798 798 798 798 798
807 804 800 796 795 794 793 793 793 792 792 791 791 791 792 792 792 793 793 792 793 794
806 803 799 797 795 793 792 791 790 788 787 786 785 784 785 786 786 786 787 787 788 788
803 800 798 795 793 792 790 788 785 784 781 780 778 777 778 779 779 779 780 780 782 783
802 799 796 794 792 790 786 784 782 779 777 775 772 771 771 771 772 773 774 775 777 778
799 797 796 794 791 788 785 782 779 776 773 770 767 766 765 765 766 766 767 769 771 773
799 797 795 791 788 785 781 777 774 771 768 765 762 761 760 759 760 760 761 764 766 768
797 794 791 787 784 781 778 774 770 766 763 759 757 756 755 754 755 756 757 759 762 763
793 791 787 784 781 778 775 770 766 763 759 757 754 752 751 750 751 751 753 755 758 759
Wind_Speed
18 21 23 24 23 22 20 18 16 15 14 14 13 12 11 10 9 8 8 8 8 8
16 18 22 23 24 25 22 19 17 17 16 16 15 14 13 13 11 10 9 9 8 8
17 18 18 20 22 24 22 19 19 18 18 18 18 17 16 15 13 12 11 10 9 8
20 20 19 19 20 20 20 20 20 20 20 21 21 19 18 17 15 14 12 12 11 10
18 19 19 19 17 16 17 18 20 21 22 23 22 21 21 20 18 17 16 14 14 13
17 19 19 18 16 14 14 16 18 20 23 24 24 23 23 21 20 19 18 17 17 16
17 19 19 18 15 12 12 14 16 18 22 24 25 25 24 23 22 21 20 19 18 18
16 17 17 17 15 13 13 14 15 17 19 21 24 26 26 25 24 23 22 20 19 19
15 15 15 16 15 14 14 15 16 17 18 20 22 24 25 25 25 25 24 23 21 20
16 17 17 17 17 16 17 17 18 18 18 19 21 20 22 23 25 25 24 23 21 19
17 18 19 19 19 19 19 19 20 20 19 20 21 20 19 19 24 27 24 22 21 20
16 17 19 19 20 20 21 21 21 20 20 20 21 19 18 16 21 28 26 22 21 19
14 16 18 19 20 21 21 21 21 21 19 18 20 19 17 14 19 24 25 24 20 19
15 16 17 19 19 20 21 21 20 19 18 17 16 16 14 13 16 22 20 22 22 20
Wind_Direction
293 288 285 282 281 281 282 286 285 284 285 287 287 288 288 288 287 280 276 269 269 270
313 299 289 284 278 274 276 281 281 279 279 279 277 277 277 276 277 273 270 266 267 261
323 318 306 291 278 272 272 273 273 272 271 269 267 267 266 267 267 264 262 261 259 259
319 319 318 304 290 279 274 270 268 269 267 265 265 264 262 263 262 260 257 251 247 245
321 322 319 314 302 289 279 273 269 267 265 265 265 265 261 260 259 256 253 249 242 239
332 333 329 321 314 297 289 285 278 271 267 267 265 264 261 260 261 258 256 251 247 243
350 348 345 340 330 318 308 299 292 283 275 270 268 265 262 259 258 256 254 251 247 244
346 349 351 352 346 334 322 312 305 297 287 278 269 264 261 257 255 253 252 249 246 245
347 350 350 348 344 334 324 316 309 302 296 288 279 273 267 262 254 252 248 245 244 244
348 349 350 346 341 335 330 325 317 311 304 295 289 284 274 261 253 252 247 245 244 241
344 342 342 342 341 338 332 327 321 315 311 302 296 294 287 264 240 251 248 242 240 236
335 332 333 335 336 338 332 329 327 323 319 311 303 299 289 271 241 241 242 238 234 230
322 323 328 330 331 332 331 327 329 327 328 322 314 308 292 274 246 239 238 233 230 229
319 320 323 323 326 327 328 328 330 327 328 327 323 315 299 276 250 238 228 228 226 228